Weather History for KBAD - January, 2013

Change the Weather History Date:

Wednesday, January 23, 2013

  Actual Average Record
Temperature  
Mean Temperature 55 °F -  
Max Temperature 73 °F 54 °F 77 °F (2002)
Min Temperature 37 °F 36 °F 24 °F (2003)
Degree Days  
Heating Degree Days 10    
Growing Degree Days 5 (Base 50)    
Moisture  
Dew Point 44 °F    
Average Humidity 69    
Maximum Humidity 91    
Minimum Humidity 41    
Precipitation  
Precipitation 0.00 in - - ()
Sea Level Pressure  
Sea Level Pressure 30.27 in    
Wind  
Wind Speed 5 mph (South)    
Max Wind Speed 15 mph    
Max Gust Speed -    
Visibility 10 miles    
Events      
Averages and records for this station are not official NWS values.
T = Trace of Precipitation, MM = Missing Value Source: NWS Daily Summary

Daily Weather History Graph

Daily Weather History Graph

Search for Another Location

Airport or City:

Trip Planner

Search our weather history database for the weather conditions in past years. The results will help you decide how hot, cold, wet, or windy it might be!

Date:

Astronomy

Jan. 23, 2013 Rise Set
Actual Time 7:13 AM CST 5:39 PM CST
Civil Twilight 6:47 AM CST 6:05 PM CST
Nautical Twilight 6:17 AM CST 6:35 PM CST
Astronomical Twilight 5:48 AM CST 7:04 PM CST
Moon 2:53 PM CST (1/23) 4:23 AM CST (1/23)
Length of Visible Light 11h 18m
Length of Day
10h 25m
Waxing Gibbous, 89% of the Moon is Illuminated
Jan 23
Waxing Gibbous
Jan 26
Full
Feb 3
Last Quarter
Feb 10
New
Feb 17
First Quarter

Hourly Weather History & Observations

Time (CST) Temp. Windchill Dew Point Humidity Pressure Visibility Wind Dir Wind Speed Gust Speed Precip Events Conditions
12:55 AM 39.9 °F 37.8 °F 34.2 °F 80% 30.29 in 10.0 mi SSE 3.5 mph - N/A   Clear
1:55 AM 41.5 °F - 34.3 °F 76% 30.29 in 10.0 mi Calm Calm - N/A   Clear
2:55 AM 37.9 °F 33.5 °F 34.0 °F 86% 30.27 in 10.0 mi SSE 5.8 mph - N/A   Clear
3:55 AM 40.3 °F - 34.9 °F 81% 30.27 in 10.0 mi Calm Calm - N/A   Clear
4:55 AM 41.7 °F 39.8 °F 37.9 °F 86% 30.30 in 10.0 mi NE 3.5 mph - N/A   Overcast
5:55 AM 41.9 °F - 37.8 °F 85% 30.31 in 10.0 mi Calm Calm - N/A   Scattered Clouds
6:55 AM 39.9 °F 37.8 °F 37.2 °F 90% 30.32 in 10.0 mi SE 3.5 mph - N/A   Partly Cloudy
7:55 AM 40.8 °F - 38.5 °F 91% 30.32 in 10.0 mi Calm Calm - N/A   Mostly Cloudy
8:55 AM 46.9 °F - 42.1 °F 83% 30.33 in 10.0 mi South 6.9 mph - N/A   Mostly Cloudy
9:20 AM 50.0 °F - 44.6 °F 82% 30.33 in 10.0 mi SSE 6.9 mph - N/A   Light Drizzle
9:55 AM 54.9 °F - 46.0 °F 72% 30.32 in 10.0 mi South 9.2 mph - N/A   Partly Cloudy
10:55 AM 62.6 °F - 49.5 °F 62% 30.33 in 10.0 mi SSW 9.2 mph - N/A   Clear
11:55 AM 68.4 °F - 49.8 °F 51% 30.31 in 10.0 mi SW 10.4 mph - N/A   Mostly Cloudy
12:55 PM 70.9 °F - 49.5 °F 47% 30.27 in 10.0 mi WSW 11.5 mph - N/A   Clear
1:55 PM 72.3 °F - 48.7 °F 43% 30.23 in 10.0 mi SSW 15.0 mph - N/A   Clear
2:10 PM 73.4 °F - 48.2 °F 41% 30.23 in 10.0 mi SW 10.4 mph - N/A   Light Drizzle
2:55 PM 73.0 °F - 48.9 °F 42% 30.22 in 10.0 mi SW 11.5 mph - N/A   Clear
3:55 PM 73.2 °F - 48.7 °F 42% 30.21 in 10.0 mi SSW 9.2 mph - N/A   Clear
4:55 PM 71.1 °F - 47.1 °F 42% 30.21 in 10.0 mi SSW 8.1 mph - N/A   Clear
5:55 PM 64.2 °F - 46.9 °F 53% 30.20 in 10.0 mi South 8.1 mph - N/A   Clear
6:55 PM 56.7 °F - 44.8 °F 64% 30.21 in 10.0 mi South 5.8 mph - N/A   Clear
7:55 PM 56.7 °F - 45.0 °F 65% 30.21 in 10.0 mi South 8.1 mph - N/A   Clear
8:55 PM 53.8 °F - 45.0 °F 72% 30.22 in 10.0 mi South 4.6 mph - N/A   Clear
9:55 PM 51.3 °F - 45.5 °F 81% 30.22 in 10.0 mi SSE 6.9 mph - N/A   Clear
10:55 PM 51.8 °F - 46.9 °F 83% 30.23 in 10.0 mi South 5.8 mph - N/A   Clear
11:55 PM 50.9 °F - 46.9 °F 86% 30.24 in 10.0 mi SSE 8.1 mph - N/A   Clear